Date,TemperatureHighF,TemperatureAvgF,TemperatureLowF,DewpointHighF,DewpointAvgF,DewpointLowF,HumidityHigh,HumidityAvg,HumidityLow,PressureMaxIn,PressureMinIn,WindSpeedMaxMPH,WindSpeedAvgMPH,GustSpeedMaxMPH,PrecipitationSumIn
2013-1-1,41.5,32.9,27.5,37.9,30.3,25.5,92,90,84,29.98,29.82,2,0,2,0.00
2013-1-2,47.5,35.0,29.7,39.2,31.3,27.4,92,87,70,29.83,29.67,2,0,2,0.00
2013-1-3,45.1,34.8,26.6,37.2,31.0,24.3,92,86,72,29.68,29.56,8,0,8,0.02
2013-1-4,44.4,40.5,38.5,42.0,37.9,36.0,92,90,86,29.77,29.60,3,0,3,0.00
2013-1-5,43.7,41.7,39.7,41.4,38.9,37.0,92,90,88,29.67,29.55,6,0,6,0.00
2013-1-6,43.5,40.5,38.5,41.4,38.2,36.3,93,91,89,29.64,29.46,6,0,6,0.00
2013-1-7,46.9,41.4,38.5,45.0,39.1,36.3,93,92,89,29.61,29.30,9,1,9,0.00
2013-1-8,52.2,44.3,38.8,48.5,41.6,36.5,93,90,85,29.62,29.15,15,2,15,0.00
2013-1-9,51.8,41.9,35.4,47.7,39.4,33.2,92,91,86,29.42,29.15,11,0,11,0.00
2013-1-10,38.8,35.4,29.3,36.3,33.1,27.0,92,92,89,29.59,29.41,0,0,0,0.00
2013-1-11,39.9,30.3,24.6,32.6,26.3,22.4,91,85,67,29.80,29.60,3,0,3,0.00
2013-1-12,37.9,28.3,23.4,30.2,24.1,20.5,90,85,72,29.92,29.80,4,0,4,0.00
2013-1-13,36.3,26.2,20.7,29.4,22.3,17.9,90,86,74,29.96,29.90,3,0,3,0.00
2013-1-14,34.9,32.3,28.8,30.8,29.0,25.7,90,88,85,30.03,29.93,0,0,0,0.00
2013-1-15,44.2,34.2,31.3,36.2,30.0,27.0,91,85,70,30.16,30.04,0,0,0,0.02
2013-1-22,34.7,34.5,34.3,32.5,32.3,32.2,92,92,92,29.41,29.39,0,0,0,0.00
2013-1-23,41.5,38.6,34.3,39.6,36.4,32.2,93,92,90,29.60,29.31,5,0,5,0.02
2013-1-24,45.0,40.5,36.7,42.6,38.1,34.5,93,91,79,29.69,29.50,10,0,10,0.00
2013-1-25,54.3,41.5,39.7,46.3,38.6,36.8,92,89,71,29.52,29.39,5,0,5,0.00
2013-1-26,39.9,38.6,37.8,37.6,36.1,35.1,92,91,88,29.49,29.35,5,0,5,0.02
2013-1-27,39.4,37.7,36.3,37.5,35.7,34.2,93,93,92,29.52,29.46,0,0,0,0.00
2013-1-28,40.1,37.1,34.5,38.2,35.2,32.6,93,93,93,29.53,29.46,0,0,0,0.00
2013-1-29,40.8,39.8,38.5,38.9,37.9,36.6,93,93,93,29.79,29.54,0,0,0,0.00
2013-1-30,44.2,42.0,38.8,42.3,40.1,36.9,94,93,93,29.84,29.80,2,0,2,0.00
2013-1-31,46.2,43.6,41.5,44.2,41.7,39.6,94,93,93,29.85,29.76,0,0,0,0.00
2013-2-1,51.6,43.9,38.3,47.8,41.6,36.1,93,92,87,29.88,29.81,0,0,0,0.00
2013-2-2,51.4,44.6,33.3,45.4,40.8,31.4,93,86,78,29.86,29.71,4,0,4,0.00
2013-2-3,44.2,39.4,37.9,42.0,37.2,35.6,93,92,91,29.77,29.69,0,0,0,0.02
2013-2-4,47.8,45.1,41.4,44.7,41.7,39.5,93,88,85,29.67,29.32,8,1,8,0.00
2013-2-5,49.8,47.3,45.5,43.4,41.5,40.4,86,80,74,29.39,29.27,11,1,11,0.00
2013-2-6,49.5,45.4,43.5,41.2,40.1,38.7,87,82,71,29.49,29.29,7,0,7,0.02
2013-2-7,48.4,40.0,34.9,41.6,35.2,31.3,89,83,73,29.62,29.27,7,0,7,0.00
2013-2-8,43.7,40.4,30.6,39.1,36.3,28.0,91,85,81,29.78,29.68,0,0,0,0.00
2013-2-9,44.1,39.8,34.5,40.5,36.9,31.8,92,89,86,29.81,29.72,0,0,0,0.00
2013-2-10,49.6,38.5,30.7,41.6,34.3,28.7,92,85,71,29.85,29.78,0,0,0,0.00
2013-2-11,44.8,41.0,38.5,41.5,38.2,35.7,92,90,85,29.82,29.79,0,0,0,0.00
2013-2-12,47.5,42.9,40.1,44.3,40.5,37.9,93,91,87,29.87,29.73,2,0,2,0.03
2013-2-13,46.8,42.1,41.2,44.0,39.6,38.8,91,91,90,29.84,29.76,0,0,0,0.00
2013-2-14,48.9,44.5,41.4,44.1,41.4,38.9,92,89,82,30.02,29.94,0,0,0,0.00
2013-2-15,56.7,47.6,36.5,48.2,42.3,34.1,92,82,70,30.01,29.63,5,0,5,0.00
2013-2-16,50.2,43.5,38.8,47.1,40.6,36.1,92,90,80,29.65,29.58,8,0,8,0.02
2013-2-17,47.8,42.4,37.6,43.0,38.7,34.3,92,87,76,29.71,29.63,0,0,0,0.00
2013-2-18,45.7,39.9,36.0,38.6,35.8,33.6,91,85,76,29.57,29.25,0,0,0,0.00
2013-2-19,54.1,42.7,33.4,39.9,34.8,29.3,88,74,52,29.47,29.24,3,0,3,0.00
2013-2-20,43.9,37.4,31.6,36.9,33.2,28.1,89,85,72,29.51,29.46,0,0,0,0.02
2013-2-21,41.2,39.1,37.4,38.7,36.9,34.7,92,92,89,29.53,29.48,0,0,0,0.00
2013-2-22,39.0,38.7,38.3,36.9,36.5,36.1,92,92,92,29.50,29.47,0,0,0,0.00
2013-2-23,49.6,42.4,38.1,43.2,37.9,35.1,91,84,68,29.82,29.36,2,0,2,0.00
2013-2-24,46.6,42.5,38.8,39.9,38.0,36.4,91,84,76,29.85,29.40,0,0,0,0.00
2013-2-25,46.6,42.8,40.8,38.4,37.3,36.3,88,81,69,29.75,29.35,2,0,2,0.02
2013-2-26,47.5,44.1,38.3,39.3,36.5,34.7,87,75,66,29.80,29.64,2,0,2,0.00
2013-2-27,49.1,42.6,37.6,42.7,38.2,34.9,91,85,72,29.77,29.65,0,0,0,0.14
2013-2-28,45.1,43.2,39.6,43.0,40.7,36.9,92,91,88,29.75,29.65,7,1,7,0.41
2013-3-1,57.4,52.4,44.4,50.1,47.2,42.3,93,83,73,29.77,29.70,12,1,12,0.00
2013-3-2,57.0,49.5,39.7,47.9,43.8,36.6,90,81,70,29.70,29.48,11,0,11,0.02
2013-3-3,51.6,41.0,31.8,41.5,35.5,27.9,91,82,58,29.79,29.64,0,0,0,0.00
2013-3-4,57.4,41.5,29.8,40.2,30.9,27.0,90,69,43,29.79,29.43,2,0,2,0.00
2013-3-5,56.8,46.8,42.1,38.2,32.5,27.9,82,58,42,29.44,29.26,8,0,8,0.02
2013-3-6,44.2,42.5,38.8,41.1,39.4,34.7,90,89,85,29.32,29.09,0,0,0,0.18
2013-3-7,47.5,42.3,35.2,44.5,39.4,32.5,92,89,88,29.59,29.38,0,0,0,0.06
2013-3-8,55.4,40.8,31.8,45.8,36.0,29.6,92,84,65,29.72,29.57,0,0,0,0.00
2013-3-9,57.2,43.1,31.6,45.5,36.9,29.0,90,79,61,29.95,29.72,2,0,2,0.00
2013-3-10,45.3,43.7,41.5,41.1,40.1,38.2,88,87,85,29.91,29.89,0,0,0,0.00
2013-3-11,55.6,45.5,36.5,42.7,38.9,33.8,91,79,55,29.92,29.66,0,0,0,0.00
2013-3-12,48.6,46.1,42.3,46.4,43.8,39.4,92,91,90,29.57,29.50,5,0,5,0.02
2013-3-13,51.8,49.1,46.2,49.2,46.7,44.1,92,91,90,29.66,29.55,6,0,6,0.00
2013-3-14,56.1,50.7,47.1,51.4,46.6,44.0,91,86,77,29.62,29.48,5,0,5,0.00
2013-3-15,63.1,51.4,44.8,52.1,46.1,42.1,91,83,61,29.67,29.58,6,0,6,0.00
2013-3-16,49.8,47.6,43.5,46.1,44.6,40.5,91,89,86,29.59,29.34,3,0,3,0.10
2013-3-17,51.8,43.2,37.9,39.9,36.6,34.6,91,78,58,29.64,29.43,7,0,8,0.00
2013-3-18,55.0,44.2,38.3,38.5,34.6,29.9,89,71,48,29.73,29.55,8,0,8,0.02
2013-3-19,55.2,44.3,37.4,37.6,33.5,29.8,82,67,44,29.72,29.07,7,0,7,0.00
2013-3-20,50.7,44.4,40.3,43.1,37.2,32.6,85,76,71,29.46,29.00,13,1,13,0.00
2013-3-21,50.7,42.0,38.5,38.5,34.7,32.4,86,76,59,29.64,29.46,8,0,8,0.02
2013-3-22,48.0,41.1,32.2,38.3,34.2,27.9,84,76,67,29.84,29.77,2,0,2,0.00
2013-3-23,55.8,46.0,34.2,37.0,32.5,28.3,89,61,43,29.87,29.77,3,0,3,0.00
2013-3-24,60.1,44.4,34.5,36.8,32.0,28.5,81,64,39,29.79,29.60,4,0,4,0.00
2013-3-25,63.7,48.5,38.8,39.8,34.7,31.4,76,61,36,29.62,29.42,5,0,5,0.00
2013-3-26,64.0,49.1,37.2,45.2,37.8,31.3,81,66,48,29.50,29.43,6,0,6,0.00
2013-3-27,59.9,48.7,37.8,46.6,40.7,33.8,87,75,59,29.48,29.43,0,0,0,0.00
2013-3-28,67.8,58.2,45.5,50.8,46.3,39.4,80,65,52,29.62,29.53,2,0,2,0.00
2013-3-29,66.7,52.0,39.6,51.3,43.6,36.0,89,74,54,29.72,29.62,4,0,4,0.00
2013-3-30,68.7,56.4,38.8,51.3,46.3,35.3,88,70,51,29.75,29.56,4,0,4,0.00
2013-3-31,71.8,53.2,38.5,50.9,43.1,34.6,87,70,46,29.57,29.38,7,0,7,0.00
2013-4-1,66.4,57.8,48.9,52.3,48.5,44.9,86,72,60,29.59,29.54,5,0,5,0.00
2013-4-2,59.9,53.8,49.6,49.4,46.6,44.8,85,77,66,29.66,29.62,4,0,4,0.00
2013-4-3,65.8,59.7,50.7,51.8,48.6,43.8,85,67,57,29.63,29.47,4,0,4,0.00
2013-4-4,57.0,54.7,52.9,52.1,49.3,45.7,90,82,74,29.26,29.10,14,1,14,0.06
2013-4-5,58.8,53.1,49.6,52.2,47.9,44.5,90,83,72,29.32,29.15,13,0,13,0.02
2013-4-6,52.2,46.8,43.5,49.3,43.2,40.2,90,87,79,29.39,29.17,6,0,6,0.04
2013-4-7,46.9,43.5,42.4,44.5,41.1,39.6,91,91,89,29.34,29.03,0,0,0,0.02
2013-4-8,56.3,50.3,42.4,48.6,45.0,39.9,92,82,72,29.73,29.36,0,0,0,0.00
2013-4-9,55.4,51.3,43.5,47.1,44.5,40.1,90,78,70,29.80,29.65,0,0,0,0.00
2013-4-10,52.9,48.8,46.8,47.5,43.9,42.2,89,83,78,29.70,29.37,6,0,6,0.02
2013-4-11,59.4,49.2,39.4,44.7,40.9,33.5,88,74,52,29.75,29.67,0,0,0,0.00
2013-4-12,47.1,41.9,37.6,41.4,38.0,33.5,90,86,79,29.65,29.16,1,0,1,0.15
2013-4-13,49.8,44.8,37.8,45.0,40.9,34.3,91,86,80,29.43,29.25,3,0,3,0.02
2013-4-14,64.0,47.1,37.2,46.9,40.4,34.8,91,78,54,29.50,29.40,0,0,0,0.00
2013-4-15,57.9,46.7,40.1,46.4,40.5,35.7,89,80,63,29.66,29.42,0,0,0,0.00
2013-4-16,58.1,44.8,35.2,45.3,38.5,32.0,90,80,56,29.80,29.65,0,0,0,0.00
2013-4-17,62.2,49.4,38.1,44.9,38.4,32.5,82,67,44,29.91,29.86,0,0,0,0.00
2013-4-18,51.6,47.5,44.2,45.8,42.8,39.2,90,84,72,29.91,29.67,0,0,0,0.02
2013-4-19,53.4,48.7,45.1,50.2,45.8,42.6,91,90,89,29.66,29.53,0,0,0,0.02
2013-4-20,54.7,49.7,47.1,47.0,45.0,42.7,91,84,73,29.73,29.66,0,0,0,0.00
2013-4-21,56.5,48.3,40.6,46.1,42.2,36.1,86,80,64,29.84,29.69,0,0,0,0.02
2013-4-22,63.5,48.3,35.2,43.6,36.2,30.6,90,66,34,29.99,29.86,1,0,1,0.00
2013-4-23,64.0,48.8,36.1,46.3,38.2,30.2,84,68,45,29.89,29.72,0,0,0,0.00
2013-4-24,72.5,47.3,37.0,47.3,37.9,32.9,87,72,32,29.81,29.54,0,0,0,0.00
2013-4-25,79.3,61.9,40.1,50.3,45.7,34.7,82,57,35,29.62,29.52,1,0,1,0.00
2013-4-26,68.9,57.9,43.3,54.7,45.9,38.4,86,65,48,29.71,29.62,0,0,0,0.00
2013-4-27,55.8,52.7,48.9,47.4,45.5,42.5,85,77,62,29.67,29.60,0,0,0,0.02
2013-4-28,57.6,49.7,43.7,47.6,44.6,40.9,91,83,68,29.67,29.40,0,0,0,0.02
2013-4-29,55.8,48.5,41.9,43.8,40.4,37.1,88,74,53,29.60,29.39,0,0,0,0.10
2013-4-30,66.0,48.2,39.4,42.3,38.2,32.5,89,70,41,29.90,29.61,2,0,2,0.02
2013-5-1,70.2,48.5,34.3,44.5,37.7,30.0,86,68,38,30.03,29.92,4,0,4,0.00
2013-5-2,66.7,55.3,40.3,49.1,43.5,35.5,84,65,51,30.02,29.83,3,0,3,0.00
2013-5-10,79.0,60.8,45.7,61.1,51.4,41.4,88,72,52,29.68,29.58,0,0,0,0.00
2013-5-11,81.1,63.9,52.9,60.8,52.9,47.9,84,69,49,29.64,29.46,0,0,0,0.00
2013-5-12,68.2,61.4,56.5,61.0,55.9,51.7,89,82,72,29.55,29.46,0,0,0,0.02
2013-5-13,66.7,57.1,48.7,56.0,51.6,45.6,89,82,64,29.65,29.38,0,0,0,0.02
2013-5-14,80.2,55.8,46.6,49.3,46.1,43.2,90,72,34,29.69,29.59,0,0,0,0.00
2013-5-15,69.1,56.4,45.7,51.5,46.8,41.1,86,72,49,29.58,29.47,1,0,1,0.02
2013-5-16,83.7,60.1,52.2,59.9,52.7,48.5,89,78,43,29.49,29.34,4,0,4,0.00
2013-5-17,61.0,55.5,51.3,52.2,50.4,46.6,87,83,70,29.53,29.41,0,0,0,0.02
2013-5-27,60.6,56.7,53.4,54.9,52.5,50.2,90,86,81,29.41,29.19,0,0,0,0.02
2013-5-28,64.2,57.7,54.5,53.6,50.6,48.4,86,77,64,29.35,29.24,0,0,0,0.02
2013-5-29,57.9,54.4,51.8,52.1,49.7,47.7,87,84,78,29.41,29.18,0,0,0,0.04
2013-5-30,60.8,54.3,49.3,53.4,49.6,46.5,91,84,70,29.69,29.44,0,0,0,0.02
2013-5-31,60.6,53.5,50.5,53.3,49.0,45.4,91,85,61,29.81,29.72,0,0,0,0.00
2013-6-1,71.4,57.7,49.6,54.6,49.7,45.0,87,76,52,29.71,29.53,0,0,0,0.00
2013-6-2,60.1,57.1,54.3,50.4,49.0,47.5,82,74,69,29.54,29.52,0,0,0,0.00
2013-6-3,91.8,70.8,50.7,60.1,53.3,46.6,86,56,34,29.58,29.53,0,0,0,0.00
2013-6-4,95.4,65.1,49.3,59.9,51.4,44.9,86,64,31,29.62,29.49,0,0,0,0.00
2013-6-5,56.8,53.9,52.0,50.8,48.2,45.7,84,81,70,29.56,29.53,0,0,0,0.00
2013-6-7,88.5,62.0,54.5,57.3,49.0,41.9,73,63,35,29.63,29.49,0,0,0,0.00
2013-6-8,69.4,62.5,55.9,52.7,49.6,45.7,77,63,51,29.66,29.57,0,0,0,0.00
2013-6-9,79.5,60.1,49.8,51.6,47.4,40.9,83,64,38,29.58,29.52,2,0,2,0.00
2013-6-10,87.8,59.9,43.0,55.0,47.1,37.9,84,65,33,29.51,29.35,4,0,4,0.00
2013-6-11,70.5,58.6,52.3,52.0,48.5,45.0,84,70,48,29.56,29.41,0,0,0,0.02
2013-6-12,76.1,59.0,52.0,63.3,51.8,48.2,88,78,60,29.60,29.57,0,0,0,0.02
2013-6-13,86.4,62.4,52.0,55.7,49.0,46.9,88,63,33,29.68,29.61,4,0,4,0.00
2013-6-14,88.7,62.7,53.2,61.7,50.5,46.8,86,66,37,29.71,29.56,2,0,2,0.03
2013-6-15,76.6,58.8,46.9,59.9,50.4,42.7,87,75,50,29.51,29.38,5,0,5,0.00
2013-6-16,74.1,63.7,51.4,59.2,54.5,47.3,87,73,56,29.54,29.46,0,0,0,0.00
2013-6-17,99.3,70.5,51.4,62.4,56.2,47.6,88,63,29,29.56,29.36,6,0,6,0.00
2013-6-18,94.3,65.8,55.8,57.2,53.0,47.6,87,66,28,29.44,29.34,3,0,3,0.00
2013-6-19,68.4,62.4,55.2,54.3,50.6,47.9,80,66,53,29.47,29.38,5,0,5,0.00
2013-6-20,57.6,53.5,52.9,50.5,50.0,48.4,90,88,71,29.47,29.42,3,0,3,0.04
2013-6-21,87.1,65.3,52.9,63.1,55.4,50.0,91,72,42,29.64,29.58,60,1,60,0.00
2013-6-22,91.9,75.2,51.3,64.0,58.7,47.5,89,58,39,29.58,29.35,6,0,6,0.00
2013-6-23,72.5,67.5,54.9,63.2,59.8,50.8,86,77,70,29.33,29.11,0,0,0,0.00
2013-6-24,66.7,63.0,59.9,59.7,55.7,53.5,90,77,70,29.17,29.05,0,0,0,0.04
2013-6-25,90.5,67.5,57.0,62.0,56.8,53.5,89,70,37,29.32,29.15,3,0,3,0.00
2013-6-26,85.1,68.2,57.9,61.2,57.6,53.4,87,70,43,29.54,29.31,2,0,2,0.02
2013-6-27,70.9,63.4,59.2,62.1,57.7,55.2,88,82,74,29.64,29.50,3,0,3,0.00
2013-6-28,81.1,72.3,59.0,69.2,63.5,55.1,88,74,63,29.67,29.51,0,0,0,0.00
2013-6-29,92.5,73.8,61.9,69.4,63.6,57.8,89,72,46,29.57,29.46,0,0,0,0.00
2013-6-30,102.6,80.6,60.4,72.2,66.7,56.2,88,64,37,29.50,29.33,0,0,0,0.00
2013-7-1,98.4,78.7,61.3,68.9,63.4,55.8,85,61,36,29.49,29.37,4,0,4,0.00
2013-7-2,97.5,73.2,58.3,62.6,57.2,50.2,83,59,30,29.59,29.51,5,0,5,0.00
2013-7-3,95.2,69.5,52.5,61.1,54.7,46.1,82,61,27,29.64,29.51,5,0,5,0.00
2013-7-4,72.0,66.7,55.0,57.3,54.7,47.5,79,66,58,29.60,29.55,2,0,2,0.00
2013-7-5,94.8,73.8,50.5,60.9,55.6,45.8,85,55,33,29.52,29.41,4,0,4,0.00
2013-7-6,81.3,70.5,52.5,62.0,58.4,47.5,86,67,45,29.47,29.35,4,0,4,0.00
2013-7-7,95.9,68.1,54.5,62.1,55.3,49.3,84,66,33,29.42,29.34,2,0,2,0.00
2013-7-8,96.4,67.9,55.2,64.2,56.7,49.8,84,69,35,29.57,29.42,2,0,2,0.00
2013-7-9,97.9,68.0,54.9,64.5,55.7,49.8,86,67,33,29.59,29.47,3,0,3,0.00
2013-7-10,89.4,64.7,54.5,58.3,52.3,46.3,82,65,33,29.55,29.44,3,0,3,0.00
2013-7-11,88.7,64.0,52.7,52.5,46.9,43.8,75,56,29,29.55,29.49,4,0,4,0.00
2013-7-12,73.0,61.2,48.2,56.0,50.9,42.7,82,69,55,29.53,29.49,4,0,4,0.00
2013-7-13,95.9,63.7,47.5,56.5,49.6,42.6,85,63,27,29.68,29.57,4,0,4,0.00
2013-7-14,97.0,65.9,48.7,56.2,49.9,43.2,83,60,24,29.62,29.47,0,0,0,0.00
2013-7-15,103.8,79.9,49.3,59.1,52.9,43.4,82,42,23,29.54,29.35,4,0,4,0.00
2013-7-16,86.7,73.9,53.8,61.2,56.7,47.8,82,56,41,29.40,29.29,5,0,5,0.00
2013-7-17,81.3,69.4,64.6,61.1,58.1,55.6,80,68,49,29.62,29.33,4,0,5,0.00
2013-7-18,95.4,72.1,59.7,65.0,57.4,51.8,77,61,35,29.70,29.58,4,0,4,0.00
2013-7-19,93.4,64.7,52.9,65.0,54.2,47.9,85,71,38,29.66,29.50,6,0,6,0.00
2013-7-20,93.0,68.0,53.2,64.8,56.0,48.2,85,67,38,29.57,29.44,6,0,6,0.00
2013-7-21,97.0,65.6,52.3,65.8,55.3,47.3,86,71,36,29.48,29.37,3,0,3,0.00
2013-7-22,95.7,71.5,55.0,65.3,58.9,49.6,84,66,35,29.54,29.42,4,0,4,0.00
2013-7-23,95.5,68.0,55.2,63.3,55.9,50.4,87,68,34,29.55,29.43,0,0,0,0.00
2013-7-24,98.8,74.7,53.2,63.8,58.0,48.1,83,58,29,29.54,29.46,6,0,6,0.00
2013-7-25,99.7,70.3,52.5,63.7,55.3,47.1,85,61,29,29.59,29.51,6,0,6,0.00
2013-7-26,100.4,71.6,50.7,60.8,53.2,45.4,85,55,21,29.63,29.53,6,0,6,0.00
2013-7-27,97.2,67.5,49.3,60.1,51.1,43.3,82,58,29,29.64,29.46,6,0,6,0.00
2013-7-28,58.3,54.9,50.2,51.9,47.3,44.6,84,76,69,29.50,29.47,0,0,0,0.00
2013-7-29,90.3,66.3,54.1,62.7,54.8,48.4,83,68,40,29.48,29.40,0,0,0,0.00
2013-7-30,87.3,65.0,53.6,63.4,55.0,48.3,84,71,45,29.60,29.48,0,0,0,0.00
2013-7-31,75.4,63.3,54.3,61.7,55.8,49.1,86,77,61,29.59,29.46,0,0,0,0.00
2013-8-1,65.7,60.9,55.8,58.1,55.2,51.4,87,81,74,29.52,29.49,3,0,3,0.00
2013-8-2,63.5,60.0,56.8,58.9,55.9,53.2,90,86,79,29.61,29.52,3,0,3,0.02
2013-8-3,77.2,65.8,58.8,63.2,58.7,55.2,90,78,61,29.61,29.52,2,0,2,0.00
2013-8-4,89.8,66.7,56.3,66.2,57.8,52.0,87,74,45,29.54,29.41,2,0,2,0.00
2013-8-5,94.8,69.7,55.9,65.8,58.4,51.4,87,69,38,29.49,29.39,4,0,4,0.00
2013-8-6,82.2,64.9,51.6,62.8,54.9,46.8,86,71,51,29.50,29.40,6,0,6,0.00
2013-8-7,85.1,67.6,54.3,62.0,56.2,49.6,85,68,46,29.49,29.43,7,0,7,0.00
2013-8-8,82.9,67.9,59.0,62.9,56.5,50.1,83,68,45,29.51,29.40,4,0,4,0.00
2013-8-9,82.8,66.7,53.2,62.8,56.7,48.2,86,72,50,29.43,29.30,2,0,2,0.00
2013-8-10,82.0,68.6,61.3,66.0,58.5,54.5,86,71,55,29.47,29.35,0,0,0,0.00
2013-8-11,74.5,64.2,57.9,62.8,56.7,53.1,87,77,62,29.53,29.47,57,2,57,0.02
2013-8-12,81.3,73.4,57.0,62.2,59.0,51.9,84,62,50,29.54,29.47,3,0,3,0.00
2013-8-13,82.2,63.1,54.5,60.6,54.3,49.8,85,75,47,29.59,29.42,0,0,0,0.00
2013-8-31,78.6,65.4,53.2,63.6,56.6,49.4,87,74,58,29.56,29.32,0,0,0,0.00
2013-9-1,81.7,65.3,54.5,63.9,56.7,50.7,88,75,52,29.37,29.27,0,0,0,0.00
2013-9-2,82.0,67.1,57.4,64.8,58.1,52.8,87,74,52,29.39,29.33,0,0,0,0.00
2013-9-3,76.3,64.7,59.2,65.6,59.3,54.7,90,83,69,29.50,29.41,0,0,0,0.02
2013-9-4,72.9,63.7,57.4,63.9,58.3,54.2,90,83,73,29.52,29.47,0,0,0,0.02
2013-9-5,71.8,62.5,55.6,66.2,58.0,52.1,89,85,77,29.52,29.40,2,0,2,0.00
2013-9-6,72.9,64.9,60.6,65.8,61.0,57.6,91,87,78,29.56,29.42,0,0,0,0.02
2013-9-7,76.8,66.1,62.2,65.8,61.6,57.0,91,86,64,29.57,29.49,4,0,4,0.00
2013-9-8,57.9,57.9,57.9,54.0,54.0,54.0,87,87,87,29.54,29.54,0,0,0,0.00
2013-9-9,77.2,64.6,57.7,64.1,57.5,53.3,89,78,61,29.53,29.44,2,0,2,0.00
2013-9-10,79.9,65.3,54.1,66.0,58.4,50.3,89,79,61,29.49,29.36,2,0,2,0.00
2013-9-11,87.6,85.6,62.2,68.2,66.5,58.9,89,53,49,29.43,29.35,5,1,5,0.00
2013-9-12,82.2,77.3,57.9,66.0,62.9,53.7,87,62,55,29.47,29.35,2,0,2,0.00
2013-9-13,66.2,65.2,59.5,60.8,60.0,55.9,89,83,82,29.45,29.35,0,0,0,0.00
2013-9-24,55.2,51.5,49.8,50.5,48.3,46.9,90,89,84,29.43,29.32,0,0,0,0.02
2013-9-25,50.0,49.7,49.3,47.1,46.0,43.7,90,88,81,29.48,29.36,0,0,0,0.00
2013-9-26,65.1,48.3,42.4,50.6,42.7,38.8,88,82,59,29.58,29.51,0,0,0,0.00
2013-9-27,51.1,50.1,47.7,48.2,46.7,43.7,90,88,85,29.57,29.33,2,0,2,0.03
2013-9-28,60.6,53.8,49.8,55.8,50.8,46.9,91,90,84,29.18,28.80,8,1,8,0.02
2013-9-29,53.8,53.2,52.3,50.0,48.4,46.4,87,84,80,28.96,28.63,5,1,5,0.00
2013-9-30,54.7,51.4,49.6,50.9,48.2,46.7,90,89,86,29.35,29.18,2,1,2,0.00
2013-10-1,52.9,51.0,50.7,47.3,45.9,45.4,83,82,81,29.56,29.51,9,1,9,0.00
2013-10-2,52.2,48.6,46.8,49.6,46.0,44.1,91,91,89,29.59,29.54,2,0,2,0.00
2013-10-3,58.8,50.2,43.5,51.4,46.3,41.0,91,87,73,29.88,29.69,0,0,0,0.00
2013-10-4,64.4,60.0,46.6,53.0,50.1,43.8,90,70,63,29.96,29.86,0,0,0,0.00
2013-10-8,60.1,52.9,48.0,50.4,47.6,42.8,90,83,66,29.52,29.43,3,0,3,0.02
2013-10-9,60.4,50.7,37.6,48.9,44.3,34.9,90,79,65,29.62,29.44,2,0,2,0.00
2013-10-10,56.5,52.0,47.1,51.5,47.5,44.0,89,84,78,29.49,29.43,1,0,1,0.00
2013-10-11,54.7,48.3,39.9,48.4,44.5,37.2,90,87,79,29.62,29.58,0,0,0,0.00
2013-10-12,57.9,49.4,44.2,51.5,44.6,40.5,87,84,79,29.68,29.58,0,0,0,0.00
2013-10-13,60.3,47.9,38.8,50.2,42.7,35.8,90,82,65,29.83,29.69,0,0,0,0.00
2013-10-14,60.6,51.1,37.4,50.2,44.5,34.4,90,79,68,29.90,29.83,0,0,0,0.00
2013-10-15,63.0,50.3,39.7,50.8,45.3,36.8,90,83,64,29.87,29.65,2,0,2,0.00
2013-10-16,56.5,50.5,43.3,51.1,46.5,40.2,90,87,82,29.68,29.63,2,0,2,0.00
2013-10-17,50.9,50.9,50.9,47.4,47.4,47.4,88,88,88,29.68,29.67,0,0,0,0.00
2013-10-18,59.4,49.2,38.3,51.2,44.7,35.3,90,85,74,29.72,29.62,3,0,3,0.00
2013-10-19,51.1,46.3,39.7,47.3,43.1,36.1,90,89,87,29.65,29.63,0,0,0,0.00
2013-11-1,55.0,52.2,49.8,50.3,48.4,46.9,90,87,83,29.73,29.31,2,0,2,0.00
2013-11-2,53.2,47.1,42.4,48.2,44.0,39.9,91,89,81,29.34,28.91,7,1,7,0.04
2013-11-3,50.2,42.5,36.0,47.6,39.5,33.3,91,90,82,29.59,29.37,0,0,0,0.00
2013-11-4,49.3,41.1,34.2,41.4,36.3,31.6,91,83,72,29.67,29.56,4,0,4,0.00
2013-11-5,45.0,42.3,40.1,42.2,39.3,36.9,90,89,86,29.66,29.51,5,0,5,0.02
2013-11-6,49.3,49.3,49.3,43.0,43.0,43.0,79,79,79,29.67,29.67,0,0,0,0.00
2013-11-7,51.3,48.6,46.2,46.7,44.5,42.8,90,86,77,29.34,29.17,7,2,7,0.00
2013-11-8,52.5,47.8,45.1,46.7,43.0,27.3,90,84,48,29.63,29.56,0,0,0,0.00
2013-11-9,45.1,44.2,43.7,41.8,40.9,40.4,88,88,88,29.63,29.62,0,0,0,0.00
2013-11-10,48.0,45.2,43.5,44.9,42.4,40.7,91,90,89,29.64,29.60,0,0,0,0.00
2013-11-11,58.6,54.5,51.6,50.1,47.6,45.3,79,77,73,29.59,29.48,0,0,0,0.00
2013-11-12,56.7,54.8,51.6,51.1,49.2,45.9,85,82,73,29.75,29.58,7,2,7,0.00
2013-11-13,52.3,50.0,49.6,48.2,46.7,46.3,90,88,85,29.87,29.82,0,0,0,0.00
2013-11-14,48.0,48.0,48.0,45.3,45.3,45.2,90,90,90,29.72,29.71,0,0,0,0.00
2013-11-15,43.7,41.5,39.9,41.2,39.0,37.5,91,91,90,29.53,28.84,4,0,4,0.00
2013-11-16,46.9,43.5,41.5,43.7,39.6,37.6,91,86,84,29.20,28.85,4,0,4,0.00
2013-11-17,43.7,42.5,40.1,41.3,39.7,36.8,91,90,86,29.33,29.25,0,0,0,0.00
2013-11-18,45.1,44.0,42.1,42.9,41.8,39.6,92,92,91,29.38,29.03,0,0,0,0.02
2013-11-19,44.2,44.2,44.2,42.0,42.0,42.0,92,92,92,29.10,29.05,0,0,0,0.00
2013-11-20,44.4,34.1,28.2,34.1,28.2,24.8,88,80,64,29.99,29.79,0,0,0,0.00
2013-11-21,28.2,27.8,27.5,24.8,24.5,24.1,87,87,87,30.00,29.99,0,0,0,0.00
2013-11-22,42.8,32.6,26.4,34.8,27.8,23.3,88,83,72,30.13,30.05,0,0,0,0.00
2013-11-23,47.7,37.3,29.3,40.1,32.9,26.4,90,84,74,29.93,29.69,2,0,2,0.00
2013-11-24,32.2,31.9,31.3,29.4,29.0,28.5,89,89,88,29.69,29.67,0,0,0,0.00
2013-11-25,52.5,40.1,32.7,43.8,35.7,30.0,90,85,72,29.78,29.74,0,0,0,0.00
2013-11-26,52.2,40.7,31.3,42.4,35.5,28.5,90,82,68,29.74,29.59,2,0,2,0.00
2013-11-27,54.3,47.0,38.3,44.0,39.3,34.2,85,75,66,29.57,29.44,2,0,2,0.00
2013-11-28,53.8,44.7,35.4,45.3,40.4,32.7,90,85,72,29.58,29.52,0,0,0,0.00
2013-11-29,52.0,45.9,43.5,46.4,42.0,40.3,89,86,79,29.78,29.66,0,0,0,0.00
2013-11-30,46.0,45.2,44.4,43.6,42.6,41.3,91,90,89,29.79,29.64,2,0,2,0.00
2013-12-1,49.8,48.1,44.2,47.2,45.6,41.7,92,91,91,29.53,29.31,5,0,5,0.00
2013-12-2,33.4,32.7,32.2,31.0,30.3,29.5,91,91,89,29.56,29.54,0,0,0,0.00
2013-12-3,40.8,30.6,27.1,29.4,24.7,21.7,89,79,61,29.80,29.56,1,0,1,0.00
2013-12-4,39.4,28.6,24.1,25.7,21.1,18.8,83,74,54,29.84,29.78,0,0,0,0.00
2013-12-5,33.6,26.4,23.4,22.2,19.8,18.1,80,76,62,29.82,29.68,2,0,2,0.00
2013-12-6,35.2,23.0,21.0,18.5,9.3,5.2,80,56,44,29.77,29.66,4,0,4,0.00
2013-12-7,31.8,21.8,15.1,11.3,7.6,4.2,73,55,39,29.89,29.75,0,0,0,0.00
2013-12-8,34.2,23.8,15.1,19.6,15.4,8.6,78,70,54,30.04,29.89,0,0,0,0.00
2013-12-9,31.6,27.3,18.3,25.0,20.5,12.9,81,75,69,30.05,29.95,0,0,0,0.00
2013-12-10,36.0,32.5,30.2,31.9,28.6,25.3,87,86,81,29.96,29.88,0,0,0,0.00
2013-12-11,40.1,34.9,31.6,33.5,30.2,27.7,88,83,73,29.89,29.65,4,0,4,0.00
2013-12-12,46.9,40.3,30.9,39.1,36.8,27.2,90,87,71,29.62,29.50,5,0,5,0.02
2013-12-13,40.3,40.1,39.7,37.9,37.5,37.3,91,90,90,29.73,29.60,2,0,2,0.00
2013-12-14,45.7,43.6,41.9,42.9,41.2,39.6,92,91,90,29.89,29.78,0,0,0,0.00
2013-12-15,48.0,45.0,41.7,45.7,42.7,39.5,92,92,91,29.91,29.78,0,0,0,0.00
2013-12-16,48.4,40.4,34.9,46.1,38.0,32.8,92,92,90,29.95,29.73,0,0,0,0.00
2013-12-17,42.6,37.5,33.4,40.4,35.3,31.3,92,92,91,29.73,29.58,0,0,0,0.00
2013-12-18,43.9,39.4,30.2,41.7,36.5,27.6,92,90,88,29.65,29.52,0,0,0,0.00
2013-12-19,35.4,31.5,27.3,29.6,27.4,24.2,90,85,78,29.82,29.67,0,0,0,0.00
2013-12-20,34.3,33.6,31.8,32.2,31.2,28.4,92,91,84,29.64,29.22,4,0,4,0.00
2013-12-21,34.5,34.3,34.2,32.4,32.2,32.0,92,92,92,29.43,29.35,0,0,0,0.00